FALCON 9 DEB (47921 NORAD) Tracking and Keplerian Element Data

This shows tracking and keplerian element data for the satellite.

Feedback or suggestion? Click here.




ElementValue
Catalog47921
NameFALCON 9 DEB
Epoch Orbit434
Epoch Day100.32096869
Epoch Year2021
RAAN78.2495
Inclination53.0408
Eccentricity0.0006364
Argument of Perigee273.8988
Mean Anonmoly86.1332
Mean Motion16.43883857
Decay Rate0.07720812
L11 47921U 21021BP 21100.32096869 .07720812 12476-4 28257-3 0 9994
L22 47921 53.0408 78.2495 0006364 273.8988 86.1332 16.43883857 4341



Live tracking and technical data element details for FALCON 9 DEB (NORAD 47921). FALCON 9 DEB can be tracked NOW for your location showing map with azimuth and elevation plus other details from your city location.







IsCatalogInMostPopularTable: catalog: 47921, numindb: 92
Update: records affected: 1



GetName: 47921 FALCON 9 DEB

Hit Count: updated at: Sun, 28 May 2023 19:37:18 GMT